www.pogodaiklimat.ru

Погода и климат >> Архив погоды >> Россия >> Пермский край >> Усть-Черная


ПОГОДА в Усть-Черной

  • Прогноз погоды в Усть-Черной
  • Монитор погоды в Усть-Черной
  • Климат города

АРХИВ ПОГОДЫ в Усть-Черной

Время (UTC), дата Ветер
(напр.,м/с)
 
Видим.   Явления Облачность Т
(С)
Тd
(С)
f
(%)
Тe
(С)
Тes
(С)
Комфортность P
(гПа)
Po
(гПа)
Тmin
(С)
Tmax
(С)
R
(мм)
R24
(мм)
S
(см)
03 14.10 СЗ 3 50 км {снег} 10/10 600 м
[Sc]
-0.2 -2.8 83 -5 -5 1020.3 997.3 -0.5 0.3
06 14.10 СЗ 4 50 км {снег} 10/10 600 м
[Sc]
+0.3 -4.0 73 -5 -5 1021.2 998.2
09 14.10 СЗ 3 50 км 10/10 600 м
[Sc]
+1.1 -4.4 67 -3 -3 1021.7 998.7
12 14.10 СЗ 1 50 км 10/10 600 м
[Sc]
+1.5 -4.0 67 0 0 1021.2 998.3
15 14.10 ЮЗ 1 50 км 10/10 600 м
[Sc]
-0.3 -2.2 87 -2 -2 1021.5 998.5 +1.7
18 14.10 З 1 50 км 10/10 600 м
[Sc]
-0.3 -2.8 83 -2 -2 1021.2 998.2
21 14.10 ЮЗ 1 50 км 10/10 600 м
[Sc]
-0.7 -2.5 88 -3 -3 1020.9 997.9
00 15.10 ЮЗ 2 50 км 10/10 600 м
[Sc]
-0.7 -2.7 86 -4 -4 1020.7 997.6
03 15.10 Ю 1 50 км 10/10 600 м
[Sc]
-0.6 -2.3 88 -3 -3 1020.3 997.2 -1.1
06 15.10 Ю 3 50 км в посл. час снег 10/10 300 м
[St]
-0.0 -0.6 96 -5 -5 1018.9 995.9
09 15.10 Ю 2 20 км морось 10/10 300 м
[St]
+0.9 +0.4 96 -3 -3 1018.2 995.3
12 15.10 Ю 2 20 км слабый дождь {морось} 10/10 300 м
[St]
+1.4 +1.0 97 -2 -2 1017.0 994.3
15 15.10 Ю 2 4000 м слабая морось {дождь} 10/10 300 м
[St]
+1.6 +1.3 98 -2 -2 1015.5 992.7 +1.6 3
18 15.10 Ю 2 4000 м слабая морось {дождь} 10/10 300 м
[St]
+2.5 +2.2 98 -1 -1 1013.6 991.0
21 15.10 ЮЗ 2 н/о н/о +3.7 +3.4 98 +1 +1 1012.7 990.2
00 16.10 ЮЗ 2 4000 м дымка {морось} 10/10 300 м
[St]
+6.1 +5.7 97 +3 +3 1011.8 989.5
03 16.10 З 2 10 км дымка 10/10 300 м
[St]
+7.7 +7.4 98 +5 +5 1011.8 989.6 +1.6 0.3
06 16.10 З 3 10 км слабая морось 10/10 300 м
[St]
+7.7 +7.4 98 +5 +5 1012.0 989.9
09 16.10 З 2 20 км слабая морось 10/10 300 м
[St]
+8.5 +8.0 97 +6 +6 1012.9 990.8
12 16.10 З 2 20 км {морось} 10/10 300 м
[St]
+8.6 +8.0 96 +7 +7 1012.9 990.8
15 16.10 ЮЗ 2 50 км 10/10 300 м
[St]
+8.7 +8.1 96 +7 +7 1011.0 989.0 +8.8 0.0
18 16.10 ЮЗ 3 50 км 10/10 300 м
[St]
+8.4 +8.0 97 +6 +6 1007.8 985.8
21 16.10 ЮЗ 5 50 км ясно +8.6 +7.7 94 +5 +5 1003.9 982.0
00 17.10 З 4 50 км 10/10 600 м
[Sc]
+9.2 +7.3 88 +6 +6 1001.9 980.1
03 17.10 СЗ 6-16
{17}
50 км в посл. час ливневой дождь 10/10 600 м
[Cb cap]
+6.3 +4.0 85 +2 +2 1004.6 982.5 +6.3 0.4
06 17.10 СЗ 5-10
{16}
50 км {ливн. осадки} 10/10 600 м
[Cb cap]
+4.3 +1.8 84 -1 -1 1011.0 988.5 +3.9
09 17.10 СЗ 5-11
{14}
50 км в посл. час ливневой дождь 10/10 600 м
[Cb cap]
+5.5 +2.0 78 +1 +1 1014.7 992.3
12 17.10 СЗ 4
{12}
50 км в посл. час ливневой дождь 9/8 600 м
[Cb cap Ci]
+5.2 +1.6 78 +1 +1 1017.7 995.2
15 17.10 СЗ 4
{11}
50 км {ливн. осадки} 3/3 600 м
[Cb cap]
+3.8 +0.6 80 -1 -1 1019.7 997.0 +5.5 0.3
18 17.10 З 2 50 км {ливн. осадки} 3/3 600 м
[Cb cap]
+2.2 +0.2 87 -1 -1 1020.5 997.7
21 17.10 З 2 50 км {ливн. осадки} 10/10 600 м
[Cb cap]
+2.2 +0.7 90 -1 -1 1020.6 997.8
00 18.10 З 1 50 км {ливн. осадки} 10/10 600 м
[Sc]
+1.6 +0.2 90 -0 -0 1021.0 998.2
03 18.10 З 1 50 км 10/10 600 м
[Sc]
+2.3 +0.2 86 +1 +1 1020.7 997.9 +0.8 0.0
06 18.10 З 3 50 км 10/10 600 м
[Sc]
+2.2 +0.1 86 -2 -2 1019.7 996.9
09 18.10 Ю 3 50 км 10/10 600 м
[Sc]
+4.8 +1.3 78 +1 +1 1017.1 994.6
12 18.10 Ю 2 50 км 10/10 600 м
[Sc]
+6.3 +2.1 74 +4 +4 1013.7 991.4
15 18.10 ЮЗ 3 50 км {ливн. осадки} 10/10 600 м
[Cb cap]
+4.9 +4.2 95 +1 +1 1009.9 987.5 +6.7 0.3
18 18.10 ЮЗ 3 50 км {ливн. осадки} 10/10 600 м
[Cb cap]
+6.4 +5.8 96 +3 +3 1008.0 985.9
21 18.10 З 3 50 км 10/10 600 м
[Sc]
+7.1 +6.6 97 +4 +4 1007.4 985.3
00 19.10 З 2 50 км 10/10 600 м
[Sc]
+8.0 +7.3 95 +6 +6 1007.1 985.0
03 19.10 ЮЗ 3 50 км 10/10 600 м
[Sc]
+8.1 +7.3 95 +5 +5 1005.9 984.0 +4.9
06 19.10 Ю 3 20 км в посл. час дождь 10/10 600 м
[Sc]
+7.6 +7.0 96 +5 +5 1004.1 982.1
09 19.10 ЮЗ 5 50 км {дождь} 10/3 600 м
[Sc Ac und]
+10.4 +7.5 82 +7 +8 1001.1 979.4
12 19.10 З 4
{10}
50 км в посл. час ливневой дождь 10/10 600 м
[Cb cap]
+9.6 +6.8 83 +7 +7 1001.8 980.0
15 19.10 З 3
{10}
50 км 8/8 600 м
[Sc]
+8.0 +4.7 80 +5 +5 1002.6 980.6 +10.4 0.3
18 19.10 З 3
{10}
50 км 3/3 600 м
[Sc]
+5.2 +2.6 83 +2 +2 1003.6 981.4
21 19.10 З 4-11
{11}
50 км 10/10 600 м
[Sc]
+4.8 +0.4 73 +1 +1 1004.4 982.2
00 20.10 З 3
{11}
50 км 10/10 600 м
[Sc]
+3.8 +0.1 77 0 0 1004.8 982.5
03 20.10 З 3 50 км 10/10 600 м
[Sc]
+2.7 +0.2 84 -1 -1 1005.4 982.9 +2.7
06 20.10 З 3 50 км 10/10 600 м
[Sc]
+3.4 0.0 78 -0 -0 1006.1 983.8 +2.4
09 20.10 СЗ 3 50 км ливневой дождь 10/10 600 м
[Cb cap]
+3.3 +1.0 85 -1 -1 1007.6 985.2
12 20.10 СЗ 3 50 км {ливн. осадки} 10/6 600 м
[Sc Ac As]
+2.1 -0.6 82 -2 -2 1009.9 987.3
15 20.10 СЗ 3 50 км 10/10 600 м
[Sc]
+1.4 -0.1 90 -3 -3 1012.2 989.5 +4.3 0.5
18 20.10 СЗ 2 50 км 10/4 600 м
[Sc Ac trans]
-0.0 -1.5 90 -4 -4 1014.0 991.2
21 20.10 СЗ 2 50 км 10/10 600 м
[Sc]
+0.2 -1.3 90 -3 -3 1015.3 992.5
00 21.10 СЗ 2 50 км 10/10 600 м
[Sc]
-0.2 -1.9 88 -4 -4 1017.2 994.2

 

Местоположение метеостанции Усть-Черная (Пермский край, Россия): широта 60.47 долгота 52.63 высота над уровнем моря 183 м.

В архиве по умолчанию представлена погода в Усть-Черной за последнюю неделю. Архивные данные за месяц целиком и за предыдущие месяцы, начиная с января 2011 года, Вы можете получить, выбрав интересующий диапазон дат из раскрывающегося списка и нажав кнопку "Ввод!".


*Определитесь, кто Вы:
робот инопланетянин человек

Внимание! Время в таблицах - всемирное. Для получения местного времени необходимо прибавить поправку, которая в Усть-Черной равна 5 ч.

Смотрите также архив погоды в соседних городах и на ближайших метеорологических станциях:

Погода в Койгородке (Коми, Россия) (91 км)
Погода в Гайнах (Пермский край, Россия) (97 км)
Погода в Кирсе (Кировская область, Россия) (126 км)
Погода в Кочево (Пермский край, Россия) (141 км)
Погода в Косе (Пермский край, Россия) (143 км)
Погода в Усть-Куломе (Коми, Россия) (146 км)
Погода в Пустоши (Коми, Россия) (147 км)
Погода в Нагорске (Кировская область, Россия) (163 км)
Погода в Объячеве (Коми, Россия) (164 км)
Погода в Сыктывкаре (Коми, Россия) (167 км)

Пояснения к столбцам:

Ветер - указаны скорость ветра в м/с - средняя за 10 мин, порывы в срок и между сроками (в фигурных скобках) и направление, откуда дует ветер: С - северный, СВ - северо-восточный, В - восточный, ЮВ - юго-восточный, Ю - южный, ЮЗ - юго-западный, З - западный, СЗ - северо-западный.
Видимость - горизонтальная дальность видимости в метрах или километрах. При видимости от 1 до 10 км при отсутствии осадков обычно наблюдается дымка, при ухудшении видимости до 1 км и менее - туман. В сухую погоду видимость может ухудшаться дымом, пылью или мглою.
Явления - указаны атмосферные явления, наблюдавшиеся в срок или в последний час перед сроком; фигурными скобками обозначены явления, наблюдавшиеся между сроками (за 1-3 часа до срока); квадратными скобками обозначены град или гололедные отложения с указанием их диаметра в мм.
Облачность - указаны через наклонную черту общая и нижняя облачность в баллах и высота нижней границы облаков в метрах; квадратными скобками обозначены формы облаков: Ci - перистые, Cs - перисто-слоистые, Cc - перисто-кучевые, Ac - высококучевые, As - высокослоистые, Sc - слоисто-кучевые, Ns - слоисто-дождевые, Cu - кучевые, Cb - кучево-дождевые. Подробнее классификацию облаков см. в Атласе облаков (PDF).
T - Температура воздуха - температура, измеренная на высоте 2 м над землей.
Td - Температура точки росы - температура, при понижении до которой содержащийся в воздухе водяной пар достигнет насыщения.
f - Относительная влажность воздуха - влажноcть воздуха, измеренная на высоте 2 м над землей.
Te - Эффективная температура - температура, которую ощущает одетый по сезону человек в тени. Характеристика душности погоды. При расчете учитывается влияние влажности воздуха и скорости ветра на теплоощущения человека.
Tes - Эффективная температура на солнце - температура, которую ощущает человек, с поправкой на солнечный нагрев. Характеристика знойности погоды. Зависит от высоты солнца над горизонтом, облачности и скорости ветра. Ночью, в пасмурную погоду, а также при ветре 12 м/с и более поправка равна нулю.
P - Атмосферное давление - приведенное к уровню моря атмосферное давление.
Po - Атмосферное давление - измеренное на уровне метеостанции атмосферное давление.
Tmin - Минимальная температура - минимум температуры воздуха на высоте 2 м над землей.
Tmax - Максимальная температура - максимум температуры воздуха на высоте 2 м над землей.
R - Количество осадков - Количество выпавших осадков за период времени, мм. При наведении курсора мыши на число - период времени, за который выпало указанное количество осадков.
R24 - Количество осадков - Количество выпавших осадков за 24 часа, мм.
S - Снежный покров - Высота снежного покрова, см. При наведении курсора мыши на число - состояние снежного покрова и степень покрытия местности в баллах.